| time (UTC) | temp C | wind direction | speed KPH | gust KPH | rain 1hr cm | rain 24hr cm | rain mn cm | humidity % | barometer mb |
| 20260506213851 | 40 | 113 | 20.9 | 20.9 | 0.00 | 0.00 | 0.00 | 55 | 1010.8 |
| 20260506213355 | 40 | 158 | 17.7 | 29.0 | 0.00 | 0.00 | 0.00 | 55 | 1010.8 |
| 20260506212846 | 40 | 90 | 29.0 | 40.2 | 0.00 | 0.00 | 0.00 | 55 | 1010.8 |
| 20260506212345 | 41 | 45 | 29.0 | 35.4 | 0.00 | 0.00 | 0.00 | 55 | 1010.8 |
| 20260506211915 | 41 | 23 | 29.0 | 29.0 | 0.00 | 0.00 | 0.00 | 55 | 1010.8 |
| 20260506204346 | 42 | 225 | 40.2 | 46.7 | 0.00 | 0.00 | 0.00 | 54 | 1011.2 |
| 20260506203848 | 46 | 225 | 46.7 | 46.7 | 0.00 | 0.00 | 0.00 | 49 | 1011.2 |
| 20260506203341 | 46 | 225 | 46.7 | 46.7 | 0.00 | 0.00 | 0.00 | 49 | 1011.2 |
| 20260506202839 | 46 | 225 | 46.7 | 46.7 | 0.00 | 0.00 | 0.00 | 49 | 1011.5 |
| 20260506202334 | 46 | 225 | 46.7 | 46.7 | 0.00 | 0.00 | 0.00 | 49 | 1011.5 |
| 20260506201834 | 46 | 225 | 46.7 | 46.7 | 0.00 | 0.00 | 0.00 | 49 | 1011.5 |
| 20260506201328 | 46 | 225 | 46.7 | 46.7 | 0.00 | 0.00 | 0.00 | 49 | 1011.5 |
| 20260506200819 | 46 | 225 | 46.7 | 46.7 | 0.00 | 0.00 | 0.00 | 49 | 1011.5 |
| 20260506200315 | 46 | 225 | 46.7 | 46.7 | 0.00 | 0.00 | 0.00 | 49 | 1011.5 |
| 20260506195814 | 46 | 225 | 46.7 | 46.7 | 0.00 | 0.00 | 0.00 | 49 | 1011.8 |
| 20260506192739 | 46 | 225 | 46.7 | 46.7 | 0.00 | 0.00 | 0.00 | 49 | 1012.5 |
| 20260506192235 | 46 | 225 | 46.7 | 46.7 | 0.00 | 0.00 | 0.00 | 49 | 1012.5 |
| 20260506191732 | 46 | 225 | 46.7 | 46.7 | 0.00 | 0.00 | 0.00 | 49 | 1012.5 |
| 20260506191227 | 46 | 225 | 46.7 | 46.7 | 0.00 | 0.00 | 0.00 | 49 | 1012.5 |
| 20260506190722 | 46 | 225 | 46.7 | 46.7 | 0.00 | 0.00 | 0.00 | 49 | 1012.5 |
| 20260506190216 | 46 | 225 | 46.7 | 46.7 | 0.00 | 0.00 | 0.00 | 49 | 1012.9 |
| 20260506185711 | 45 | 225 | 17.7 | 17.7 | 0.00 | 0.00 | 0.00 | 50 | 1012.9 |
| 20260506185210 | 45 | 248 | 17.7 | 17.7 | 0.00 | 0.00 | 0.00 | 50 | 1013.2 |
| 20260506184214 | 45 | 203 | 0.0 | 20.9 | 0.00 | 0.00 | 0.00 | 50 | 1013.6 |
| 20260506183703 | 45 | 203 | 20.9 | 20.9 | 0.00 | 0.00 | 0.00 | 50 | 1013.6 |
| 20260506182541 | 45 | 203 | 20.9 | 20.9 | 0.00 | 0.00 | 0.00 | 50 | 1013.6 |
| 20260506182029 | 43 | 180 | 17.7 | 20.9 | 0.00 | 0.00 | 0.00 | 51 | 1013.6 |
| 20260506181530 | 42 | 248 | 17.7 | 46.7 | 0.00 | 0.00 | 0.00 | 53 | 1013.6 |
| 20260506181024 | 43 | 180 | 17.7 | 20.9 | 0.00 | 0.00 | 0.00 | 51 | 1013.6 |
| 20260506180515 | 42 | 225 | 11.3 | 17.7 | 0.00 | 0.00 | 0.00 | 53 | 1013.9 |
| 20260506180012 | 43 | 90 | 17.7 | 46.7 | 0.00 | 0.00 | 0.00 | 52 | 1013.9 |
| 20260506175508 | 42 | 68 | 11.3 | 29.0 | 0.00 | 0.00 | 0.00 | 54 | 1013.9 |
| 20260506175004 | 42 | 225 | 11.3 | 40.2 | 0.00 | 0.00 | 0.00 | 54 | 1013.9 |
| 20260506174501 | 43 | 45 | 29.0 | 35.4 | 0.00 | 0.00 | 0.00 | 52 | 1014.2 |
| 20260506173956 | 43 | 113 | 17.7 | 20.9 | 0.00 | 0.00 | 0.00 | 53 | 1014.2 |
| 20260506173454 | 42 | 0 | 35.4 | 40.2 | 0.00 | 0.00 | 0.00 | 53 | 1014.2 |
| 20260506172954 | 42 | 68 | 0.0 | 17.7 | 0.00 | 0.00 | 0.00 | 52 | 1014.2 |
| 20260506172441 | 43 | 45 | 20.9 | 29.0 | 0.00 | 0.00 | 0.00 | 52 | 1014.2 |
| 20260506171942 | 43 | 113 | 11.3 | 20.9 | 0.00 | 0.00 | 0.00 | 51 | 1014.2 |
| 20260506171445 | 42 | 180 | 6.4 | 17.7 | 0.00 | 0.00 | 0.00 | 53 | 1014.2 |
| 20260506170932 | 42 | 68 | 35.4 | 35.4 | 0.00 | 0.00 | 0.00 | 53 | 1014.2 |
| 20260506165937 | 42 | 113 | 17.7 | 29.0 | 0.00 | 0.00 | 0.00 | 52 | 1014.6 |
| 20260506165426 | 42 | 68 | 20.9 | 20.9 | 0.00 | 0.00 | 0.00 | 53 | 1014.6 |
| 20260506164921 | 42 | 90 | 35.4 | 35.4 | 0.00 | 0.00 | 0.00 | 52 | 1014.6 |
| 20260506164415 | 42 | 90 | 17.7 | 29.0 | 0.00 | 0.00 | 0.00 | 53 | 1014.6 |
| 20260506163920 | 42 | 203 | 11.3 | 20.9 | 0.00 | 0.00 | 0.00 | 52 | 1014.6 |
| 20260506163413 | 42 | 225 | 11.3 | 11.3 | 0.00 | 0.00 | 0.00 | 52 | 1014.6 |
| 20260506162907 | 42 | 225 | 17.7 | 17.7 | 0.00 | 0.00 | 0.00 | 54 | 1014.6 |
| 20260506162358 | 42 | 270 | 17.7 | 20.9 | 0.00 | 0.00 | 0.00 | 54 | 1014.6 |
| 20260506161853 | 42 | 113 | 0.0 | 35.4 | 0.00 | 0.00 | 0.00 | 54 | 1014.9 |
| 20260506161350 | 42 | 113 | 17.7 | 17.7 | 0.00 | 0.00 | 0.00 | 54 | 1014.9 |
| 20260506160842 | 42 | 113 | 17.7 | 20.9 | 0.00 | 0.00 | 0.00 | 54 | 1014.9 |
| 20260506160340 | 42 | 225 | 11.3 | 17.7 | 0.00 | 0.00 | 0.00 | 55 | 1014.9 |
| 20260506155844 | 41 | 90 | 35.4 | 35.4 | 0.00 | 0.00 | 0.00 | 55 | 1014.9 |
| 20260506155336 | 40 | 0 | 11.3 | 20.9 | 0.00 | 0.00 | 0.00 | 57 | 1014.9 |
| 20260506154835 | 38 | 68 | 11.3 | 40.2 | 0.00 | 0.00 | 0.00 | 59 | 1015.2 |
| 20260506154335 | 38 | 158 | 6.4 | 11.3 | 0.00 | 0.00 | 0.00 | 59 | 1015.2 |
| 20260506153831 | 38 | 180 | 17.7 | 20.9 | 0.00 | 0.00 | 0.00 | 60 | 1014.9 |
| 20260506153325 | 37 | 293 | 17.7 | 20.9 | 0.00 | 0.00 | 0.00 | 62 | 1014.9 |
| 20260506152824 | 37 | 135 | 17.7 | 17.7 | 0.00 | 0.00 | 0.00 | 63 | 1014.9 |
| 20260506152316 | 37 | 68 | 20.9 | 20.9 | 0.00 | 0.00 | 0.00 | 63 | 1014.9 |
| 20260506151816 | 37 | 90 | 29.0 | 35.4 | 0.00 | 0.00 | 0.00 | 65 | 1014.9 |
| 20260506151326 | 37 | 158 | 17.7 | 17.7 | 0.00 | 0.00 | 0.00 | 66 | 1014.9 |
| 20260506150823 | 37 | 113 | 20.9 | 40.2 | 0.00 | 0.00 | 0.00 | 66 | 1014.9 |
| 20260506150312 | 37 | 113 | 11.3 | 40.2 | 0.00 | 0.00 | 0.00 | 67 | 1014.9 |
| 20260506145809 | 37 | 23 | 20.9 | 35.4 | 0.00 | 0.00 | 0.00 | 67 | 1015.2 |
| 20260506145308 | 37 | 23 | 6.4 | 29.0 | 0.00 | 0.00 | 0.00 | 67 | 1015.2 |
| 20260506144803 | 37 | 68 | 17.7 | 29.0 | 0.00 | 0.00 | 0.00 | 67 | 1015.2 |
| 20260506144256 | 36 | 158 | 11.3 | 35.4 | 0.00 | 0.00 | 0.00 | 70 | 1015.2 |
| 20260506143756 | 35 | 113 | 20.9 | 29.0 | 0.00 | 0.00 | 0.00 | 71 | 1015.2 |
| 20260506143254 | 33 | 135 | 17.7 | 20.9 | 0.00 | 0.00 | 0.00 | 72 | 1014.9 |
| 20260506142751 | 33 | 90 | 17.7 | 35.4 | 0.00 | 0.00 | 0.00 | 72 | 1014.9 |
| 20260506142252 | 33 | 180 | 0.0 | 35.4 | 0.00 | 0.00 | 0.00 | 75 | 1014.9 |
| 20260506141744 | 32 | 113 | 17.7 | 17.7 | 0.00 | 0.00 | 0.00 | 76 | 1014.9 |
| 20260506141241 | 32 | 90 | 46.7 | 46.7 | 0.00 | 0.00 | 0.00 | 75 | 1015.2 |
| 20260506140738 | 32 | 113 | 20.9 | 29.0 | 0.00 | 0.00 | 0.00 | 76 | 1015.2 |
| 20260506140231 | 32 | 90 | 20.9 | 29.0 | 0.00 | 0.00 | 0.00 | 76 | 1015.2 |
| 20260506135731 | 32 | 45 | 17.7 | 40.2 | 0.00 | 0.00 | 0.00 | 77 | 1015.2 |
| 20260506135228 | 32 | 68 | 20.9 | 29.0 | 0.00 | 0.00 | 0.00 | 79 | 1014.9 |
| 20260506134725 | 32 | 135 | 17.7 | 35.4 | 0.00 | 0.00 | 0.00 | 78 | 1014.9 |
| 20260506134219 | 32 | 113 | 29.0 | 29.0 | 0.00 | 0.00 | 0.00 | 79 | 1015.2 |
| 20260506133215 | 32 | 113 | 17.7 | 17.7 | 0.00 | 0.00 | 0.00 | 81 | 1015.2 |
| 20260506132721 | 31 | 135 | 20.9 | 35.4 | 0.00 | 0.00 | 0.00 | 83 | 1015.2 |
| 20260506132223 | 31 | 113 | 11.3 | 35.4 | 0.00 | 0.00 | 0.00 | 85 | 1015.2 |
| 20260506124930 | 28 | 90 | 20.9 | 20.9 | 0.00 | 0.00 | 0.00 | 93 | 1014.9 |
| 20260506124425 | 27 | 113 | 20.9 | 35.4 | 0.00 | 0.00 | 0.00 | 94 | 1014.9 |
| 20260506123918 | 27 | 113 | 11.3 | 29.0 | 0.00 | 0.00 | 0.00 | 96 | 1014.9 |
| 20260506123417 | 27 | 90 | 17.7 | 29.0 | 0.00 | 0.00 | 0.00 | 97 | 1014.9 |
| 20260506122915 | 27 | 90 | 11.3 | 29.0 | 0.00 | 0.00 | 0.00 | 99 | 1014.9 |
| 20260506122410 | 27 | 113 | 17.7 | 17.7 | 0.00 | 0.00 | 0.00 | 99 | 1014.9 |
| 20260506121358 | 27 | 68 | 0.0 | 0.0 | 0.00 | 0.00 | 0.00 | 99 | 1014.9 |
| 20260506120855 | 27 | 113 | 0.0 | 0.0 | 0.00 | 0.00 | 0.00 | 99 | 1014.9 |
| 20260506120353 | 27 | 90 | 17.7 | 20.9 | 0.00 | 0.00 | 0.00 | 99 | 1014.9 |
| 20260506115848 | 27 | 113 | 0.0 | 0.0 | 0.00 | 0.00 | 0.00 | 98 | 1014.9 |
| 20260506115350 | 27 | 135 | 0.0 | 0.0 | 0.00 | 0.00 | 0.00 | 98 | 1014.9 |
| 20260506114841 | 27 | 135 | 0.0 | 0.0 | 0.00 | 0.00 | 0.00 | 99 | 1014.6 |
| 20260506114337 | 27 | 113 | 0.0 | 0.0 | 0.00 | 0.00 | 0.00 | 98 | 1014.6 |
| 20260506112916 | 27 | 225 | 0.0 | 0.0 | 0.00 | 0.00 | 0.00 | 99 | 1014.6 |
| 20260506112409 | 27 | 203 | 0.0 | 0.0 | 0.00 | 0.00 | 0.00 | 99 | 1014.6 |
| 20260506111907 | 27 | 225 | 0.0 | 6.4 | 0.00 | 0.00 | 0.00 | 99 | 1014.6 |
| 20260506111356 | 27 | 225 | 0.0 | 0.0 | 0.00 | 0.00 | 0.00 | 99 | 1014.6 |
| 20260506110850 | 27 | 338 | 0.0 | 0.0 | 0.00 | 0.00 | 0.00 | 99 | 1014.6 |
| 20260506110343 | 27 | 203 | 0.0 | 0.0 | 0.00 | 0.00 | 0.00 | 98 | 1014.2 |
| 20260506100926 | 27 | 203 | 0.0 | 0.0 | 0.00 | 0.00 | 0.00 | 98 | 1014.2 |
| 20260506100433 | 27 | 225 | 0.0 | 0.0 | 0.00 | 0.00 | 0.00 | 97 | 1014.2 |
| 20260506085920 | 28 | 225 | 6.4 | 11.3 | 0.00 | 0.00 | 0.00 | 94 | 1013.9 |
| 20260506085419 | 28 | 113 | 17.7 | 17.7 | 0.00 | 0.00 | 0.00 | 94 | 1013.6 |
| 20260506084910 | 28 | 248 | 11.3 | 11.3 | 0.00 | 0.00 | 0.00 | 94 | 1013.6 |
| 20260506083859 | 28 | 45 | 11.3 | 17.7 | 0.00 | 0.00 | 0.00 | 93 | 1013.6 |
| 20260506083355 | 28 | 90 | 0.0 | 11.3 | 0.00 | 0.00 | 0.00 | 93 | 1013.6 |
| 20260506082853 | 28 | 135 | 0.0 | 0.0 | 0.00 | 0.00 | 0.00 | 93 | 1013.6 |
| 20260506082343 | 28 | 113 | 11.3 | 11.3 | 0.00 | 0.00 | 0.00 | 93 | 1013.6 |
| 20260506081838 | 28 | 113 | 17.7 | 20.9 | 0.00 | 0.00 | 0.00 | 94 | 1013.9 |
| 20260506081330 | 28 | 158 | 20.9 | 35.4 | 0.00 | 0.00 | 0.00 | 94 | 1013.9 |
| 20260506080825 | 28 | 68 | 11.3 | 20.9 | 0.00 | 0.00 | 0.00 | 94 | 1013.9 |
| 20260506080322 | 28 | 113 | 29.0 | 29.0 | 0.00 | 0.00 | 0.00 | 94 | 1013.9 |
| 20260506073307 | 28 | 158 | 20.9 | 20.9 | 0.00 | 0.00 | 0.00 | 94 | 1014.2 |
| 20260506072801 | 28 | 113 | 11.3 | 40.2 | 0.00 | 0.00 | 0.00 | 94 | 1014.2 |
| 20260506072257 | 28 | 90 | 17.7 | 29.0 | 0.00 | 0.00 | 0.00 | 94 | 1014.2 |
| 20260506071450 | 28 | 68 | 17.7 | 29.0 | 0.00 | 0.00 | 0.00 | 94 | 1014.2 |
| 20260506070947 | 28 | 45 | 11.3 | 17.7 | 0.00 | 0.00 | 0.00 | 95 | 1014.2 |
| 20260506070445 | 28 | 180 | 17.7 | 29.0 | 0.00 | 0.00 | 0.00 | 95 | 1014.2 |
| 20260506062401 | 28 | 225 | 0.0 | 11.3 | 0.00 | 0.00 | 0.00 | 92 | 1014.6 |
| 20260506061358 | 30 | 113 | 11.3 | 11.3 | 0.00 | 0.00 | 0.00 | 92 | 1014.6 |
| 20260506060855 | 28 | 225 | 6.4 | 20.9 | 0.00 | 0.00 | 0.00 | 92 | 1014.2 |
| 20260506060349 | 28 | 135 | 11.3 | 20.9 | 0.00 | 0.00 | 0.00 | 92 | 1014.2 |
| 20260506051315 | 30 | 68 | 20.9 | 35.4 | 0.00 | 0.00 | 0.00 | 91 | 1014.2 |
| 20260506050814 | 30 | 90 | 17.7 | 20.9 | 0.00 | 0.00 | 0.00 | 91 | 1014.2 |
| 20260506050305 | 30 | 23 | 20.9 | 20.9 | 0.00 | 0.00 | 0.00 | 90 | 1014.2 |